Tracking 19576 objects as of 18-Feb-2019
HD Live streaming from Space Station
objects crossing your sky now

FENGYUN 1C DEB

Track FENGYUN 1C DEB now!
10-day predictions


NORAD ID: 30730
Int'l Code: 1999-025ASQ
Perigee: 782.4 km
Apogee: 910.8 km
Inclination: 98.9 °
Period: 101.7 minutes
Semi major axis: 7217 km
RCS: 0.031 m2 (small)
Launch date: May 10, 1999
Source: People's Republic of China (PRC)
Launch site: Taiyaun Space Center, China (TSC)

Note: This is SATELLITE DEBRIS
aabbcc
Your satellite tracking list
Your tracking list is empty




NASA's NSSDC Master Catalog

Two Line Element Set (TLE):
1 30730U 99025ASQ 19047.80951924  .00000383  00000-0  20946-3 0  9995
2 30730  98.8593  91.5429 0089002   4.8086  54.0177 14.15837907616992
Source of the keplerian elements: AFSPC